• In Hungary
  • List of Countries
  • For 7 days
  • Water Temperature
  • Satellite Maps
  • Weather Map
  • News
  • Weather Widgets
  • user-avatar
    Login

    Hourly Weather Ben-Gurion

    Today, 18 August, Friday

    Time Temperature Precipitation Wind Pressure Humidity
    00:00 +29°C° 0 mm 1 mps 752 mmHg 62%
    01:00 +29°C° 0 mm 1 mps 752 mmHg 63%
    02:00 +28°C° 0 mm 2 mps 752 mmHg 65%
    03:00 +28°C° 0 mm 2 mps 752 mmHg 67%
    04:00 +27°C° 0 mm 2 mps 752 mmHg 68%
    05:00 +27°C° 0 mm 2 mps 752 mmHg 70%
    06:00 +28°C° 0 mm 2 mps 752 mmHg 64%
    07:00 +29°C° 0 mm 2 mps 753 mmHg 58%
    08:00 +30°C° 0 mm 2 mps 753 mmHg 51%
    09:00 +33°C° 0 mm 3 mps 753 mmHg 46%
    10:00 +34°C° 0 mm 3 mps 753 mmHg 40%
    11:00 +35°C° 0 mm 3 mps 753 mmHg 34%
    12:00 +36°C° 0 mm 4 mps 753 mmHg 34%
    13:00 +36°C° 0 mm 4 mps 753 mmHg 34%
    14:00 +36°C° 0 mm 4 mps 752 mmHg 34%
    15:00 +36°C° 0 mm 4 mps 752 mmHg 37%
    16:00 +35°C° 0 mm 4 mps 752 mmHg 40%
    17:00 +34°C° 0 mm 4 mps 752 mmHg 44%
    18:00 +33°C° 0 mm 4 mps 752 mmHg 47%
    19:00 +31°C° 0 mm 3 mps 752 mmHg 50%
    20:00 +30°C° 0 mm 3 mps 753 mmHg 54%
    21:00 +30°C° 0 mm 3 mps 753 mmHg 53%
    22:00 +30°C° 0 mm 2 mps 753 mmHg 53%
    23:00 +30°C° 0 mm 2 mps 753 mmHg 53%

    Tomorrow, 19 August, Saturday

    Time Temperature Precipitation Wind Pressure Humidity
    00:00 +29°C° 0 mm 2 mps 753 mmHg 54%
    01:00 +29°C° 0 mm 2 mps 753 mmHg 54%
    02:00 +29°C° 0 mm 2 mps 752 mmHg 55%
    03:00 +29°C° 0 mm 1 mps 752 mmHg 56%
    04:00 +28°C° 0 mm 1 mps 752 mmHg 56%
    05:00 +28°C° 0 mm 1 mps 752 mmHg 56%
    06:00 +29°C° 0 mm 1 mps 753 mmHg 50%
    07:00 +31°C° 0 mm 1 mps 753 mmHg 43%
    08:00 +33°C° 0 mm 1 mps 753 mmHg 37%
    09:00 +34°C° 0 mm 1 mps 753 mmHg 34%
    10:00 +36°C° 0 mm 2 mps 753 mmHg 32%
    11:00 +37°C° 0 mm 3 mps 753 mmHg 29%
    12:00 +38°C° 0 mm 4 mps 753 mmHg 30%
    13:00 +38°C° 0 mm 4 mps 753 mmHg 30%
    14:00 +39°C° 0 mm 5 mps 752 mmHg 30%
    15:00 +39°C° 0 mm 5 mps 752 mmHg 33%
    16:00 +37°C° 0 mm 5 mps 752 mmHg 36%
    17:00 +36°C° 0 mm 6 mps 752 mmHg 39%
    18:00 +35°C° 0 mm 5 mps 752 mmHg 43%
    19:00 +34°C° 0 mm 5 mps 752 mmHg 47%
    20:00 +33°C° 0 mm 5 mps 753 mmHg 52%
    21:00 +32°C° 0 mm 4 mps 753 mmHg 52%
    22:00 +32°C° 0 mm 4 mps 753 mmHg 53%
    23:00 +32°C° 0 mm 4 mps 753 mmHg 54%

    Day after tomorrow, 20 August, Sunday

    Time Temperature Precipitation Wind Pressure Humidity
    00:00 +30°C° 0 mm 4 mps 753 mmHg 55%
    01:00 +30°C° 0 mm 3 mps 753 mmHg 55%
    02:00 +30°C° 0 mm 3 mps 752 mmHg 56%
    03:00 +30°C° 0 mm 3 mps 752 mmHg 58%
    04:00 +29°C° 0 mm 3 mps 753 mmHg 61%
    05:00 +29°C° 0 mm 2 mps 753 mmHg 63%
    06:00 +30°C° 0 mm 2 mps 753 mmHg 56%
    07:00 +31°C° 0 mm 2 mps 753 mmHg 50%
    08:00 +34°C° 0 mm 2 mps 753 mmHg 43%
    09:00 +35°C° 0 mm 3 mps 753 mmHg 40%
    10:00 +36°C° 0 mm 4 mps 753 mmHg 38%
    11:00 +39°C° 0 mm 5 mps 753 mmHg 35%
    12:00 +37°C° 0 mm 5 mps 752 mmHg 36%
    13:00 +38°C° 0 mm 6 mps 752 mmHg 38%
    14:00 +38°C° 0 mm 6 mps 751 mmHg 40%
    15:00 +36°C° 0 mm 6 mps 751 mmHg 44%
    16:00 +35°C° 0 mm 6 mps 751 mmHg 48%
    17:00 +34°C° 0 mm 6 mps 751 mmHg 52%
    18:00 +33°C° 0 mm 5 mps 751 mmHg 57%
    19:00 +32°C° 0 mm 5 mps 752 mmHg 62%
    20:00 +30°C° 0 mm 4 mps 752 mmHg 66%
    21:00 +30°C° 0 mm 4 mps 752 mmHg 67%
    22:00 +30°C° 0 mm 3 mps 752 mmHg 68%
    23:00 +29°C° 0 mm 3 mps 752 mmHg 68%

    21 August, Monday

    Time Temperature Precipitation Wind Pressure Humidity
    00:00 +29°C° 0 mm 3 mps 752 mmHg 69%
    01:00 +29°C° 0 mm 3 mps 752 mmHg 70%
    02:00 +29°C° 0 mm 3 mps 752 mmHg 71%
    03:00 +28°C° 0 mm 2 mps 752 mmHg 71%
    04:00 +28°C° 0 mm 2 mps 752 mmHg 72%
    05:00 +28°C° 0 mm 2 mps 752 mmHg 72%
    06:00 +29°C° 0 mm 2 mps 752 mmHg 66%
    07:00 +30°C° 0 mm 2 mps 752 mmHg 60%
    08:00 +31°C° 0 mm 2 mps 753 mmHg 54%
    09:00 +33°C° 0 mm 3 mps 753 mmHg 49%
    10:00 +34°C° 0 mm 3 mps 752 mmHg 44%
    11:00 +35°C° 0 mm 4 mps 752 mmHg 39%
    12:00 +35°C° 0 mm 5 mps 752 mmHg 40%
    13:00 +36°C° 0 mm 5 mps 752 mmHg 41%
    14:00 +36°C° 0 mm 6 mps 751 mmHg 42%
    15:00 +35°C° 0 mm 6 mps 751 mmHg 45%
    16:00 +34°C° 0 mm 5 mps 751 mmHg 49%
    17:00 +33°C° 0 mm 5 mps 751 mmHg 52%
    18:00 +32°C° 0 mm 5 mps 752 mmHg 57%
    19:00 +30°C° 0 mm 4 mps 752 mmHg 62%
    20:00 +30°C° 0 mm 4 mps 752 mmHg 66%
    21:00 +29°C° 0 mm 3 mps 752 mmHg 68%
    22:00 +29°C° 0 mm 3 mps 752 mmHg 70%
    23:00 +29°C° 0 mm 3 mps 752 mmHg 71%

    22 August, Tuesday

    Time Temperature Precipitation Wind Pressure Humidity
    00:00 +29°C° 0 mm 3 mps 752 mmHg 72%
    01:00 +28°C° 0 mm 2 mps 752 mmHg 73%
    02:00 +28°C° 0 mm 2 mps 752 mmHg 74%
    03:00 +28°C° 0 mm 2 mps 752 mmHg 75%
    04:00 +28°C° 0 mm 2 mps 752 mmHg 75%
    05:00 +27°C° 0 mm 2 mps 752 mmHg 76%
    06:00 +28°C° 0 mm 2 mps 752 mmHg 70%
    07:00 +29°C° 0 mm 2 mps 753 mmHg 65%
    08:00 +30°C° 0 mm 2 mps 753 mmHg 59%
    09:00 +31°C° 0 mm 2 mps 753 mmHg 54%
    10:00 +34°C° 0 mm 3 mps 752 mmHg 49%
    11:00 +35°C° 0 mm 4 mps 752 mmHg 44%
    12:00 +35°C° 0 mm 4 mps 752 mmHg 43%
    13:00 +36°C° 0 mm 5 mps 751 mmHg 43%
    14:00 +36°C° 0 mm 5 mps 751 mmHg 43%
    15:00 +35°C° 0 mm 5 mps 751 mmHg 46%
    16:00 +34°C° 0 mm 5 mps 751 mmHg 49%
    17:00 +33°C° 0 mm 5 mps 751 mmHg 51%
    18:00 +33°C° 0 mm 4 mps 751 mmHg 56%
    19:00 +32°C° 0 mm 4 mps 751 mmHg 61%
    20:00 +30°C° 0 mm 3 mps 751 mmHg 66%
    21:00 +30°C° 0 mm 3 mps 751 mmHg 67%
    22:00 +29°C° 0 mm 3 mps 751 mmHg 69%
    23:00 +29°C° 0 mm 2 mps 751 mmHg 71%

    23 August, Wednesday

    Time Temperature Precipitation Wind Pressure Humidity
    00:00 +29°C° 0 mm 2 mps 751 mmHg 72%
    01:00 +28°C° 0 mm 2 mps 751 mmHg 73%
    02:00 +28°C° 0 mm 2 mps 751 mmHg 74%
    03:00 +28°C° 0 mm 2 mps 751 mmHg 75%
    04:00 +27°C° 0 mm 1 mps 751 mmHg 77%
    05:00 +27°C° 0 mm 1 mps 751 mmHg 78%
    06:00 +28°C° 0 mm 1 mps 751 mmHg 70%
    07:00 +29°C° 0 mm 1 mps 752 mmHg 62%
    08:00 +31°C° 0 mm 2 mps 752 mmHg 55%
    09:00 +32°C° 0 mm 2 mps 751 mmHg 48%
    10:00 +35°C° 0 mm 3 mps 751 mmHg 41%
    11:00 +36°C° 0 mm 3 mps 751 mmHg 34%
    12:00 +37°C° 0 mm 4 mps 751 mmHg 34%
    13:00 +37°C° 0 mm 4 mps 750 mmHg 34%
    14:00 +37°C° 0 mm 5 mps 750 mmHg 34%
    15:00 +37°C° 0 mm 5 mps 750 mmHg 37%
    16:00 +36°C° 0 mm 5 mps 750 mmHg 40%
    17:00 +35°C° 0 mm 5 mps 750 mmHg 43%
    18:00 +34°C° 0 mm 4 mps 750 mmHg 48%
    19:00 +33°C° 0 mm 4 mps 750 mmHg 53%
    20:00 +31°C° 0 mm 3 mps 751 mmHg 57%
    21:00 +31°C° 0 mm 3 mps 751 mmHg 60%
    22:00 +30°C° 0 mm 3 mps 751 mmHg 62%
    23:00 +30°C° 0 mm 2 mps 751 mmHg 64%
    Show more